• în Republica Moldova
  • Lista ţărilor
  • Pe 7 zile
  • Temperatura apei
  • Hartă satelitară
  • Meteo pe hartă
  • Widget-uri
  • user-avatar
    Intrare

    Meteo pe oră la Kaprun

    Astăzi, 23 Octombrie, Luni

    Timp Temperatura Precipitaţii Vânt Presiune Umiditate
    00:00 -6°C° 0,8 mm 3 m/s 593 mmHg 94%
    01:00 -4°C° 0 mm 2 m/s 593 mmHg 91%
    02:00 -4°C° 0,7 mm 2 m/s 593 mmHg 92%
    03:00 -5°C° 0,7 mm 3 m/s 593 mmHg 92%
    04:00 -5°C° 0,7 mm 3 m/s 593 mmHg 92%
    05:00 -6°C° 0,8 mm 3 m/s 593 mmHg 92%
    06:00 -6°C° 0,8 mm 3 m/s 593 mmHg 92%
    07:00 -6°C° 0 mm 3 m/s 593 mmHg 92%
    08:00 -5°C° 0,7 mm 3 m/s 594 mmHg 89%
    09:00 -5°C° 0,7 mm 3 m/s 594 mmHg 87%
    10:00 -4°C° 0,7 mm 4 m/s 594 mmHg 84%
    11:00 -4°C° 0,6 mm 4 m/s 594 mmHg 83%
    12:00 -4°C° 0,6 mm 4 m/s 595 mmHg 83%
    13:00 -2°C° 0,6 mm 3 m/s 595 mmHg 82%
    14:00 -4°C° 0,6 mm 3 m/s 595 mmHg 84%
    15:00 -4°C° 0,6 mm 3 m/s 595 mmHg 85%
    16:00 -4°C° 0,6 mm 3 m/s 595 mmHg 87%
    17:00 -4°C° 0,8 mm 3 m/s 595 mmHg 89%
    18:00 -5°C° 0,8 mm 3 m/s 596 mmHg 90%
    19:00 -5°C° 0,8 mm 3 m/s 596 mmHg 92%
    20:00 -5°C° 1 mm 3 m/s 596 mmHg 92%
    21:00 -5°C° 1 mm 3 m/s 597 mmHg 93%
    22:00 -5°C° 1 mm 3 m/s 597 mmHg 93%
    23:00 -5°C° 0,6 mm 3 m/s 597 mmHg 93%

    Mâine, 24 Octombrie, Marţi

    Timp Temperatura Precipitaţii Vânt Presiune Umiditate
    00:00 -5°C° 0,6 mm 3 m/s 597 mmHg 94%
    01:00 -5°C° 0,6 mm 3 m/s 598 mmHg 94%
    02:00 -5°C° 0,4 mm 3 m/s 598 mmHg 94%
    03:00 -5°C° 0,4 mm 3 m/s 598 mmHg 94%
    04:00 -5°C° 0,4 mm 3 m/s 598 mmHg 94%
    05:00 -5°C° 0,3 mm 3 m/s 598 mmHg 94%
    06:00 -5°C° 0,3 mm 3 m/s 598 mmHg 94%
    07:00 -5°C° 0,3 mm 3 m/s 599 mmHg 94%
    08:00 -4°C° 0,1 mm 3 m/s 599 mmHg 91%
    09:00 -2°C° 0,1 mm 3 m/s 600 mmHg 88%
    10:00 -1°C° 0,1 mm 3 m/s 600 mmHg 85%
    11:00 0°C° 0 mm 3 m/s 600 mmHg 84%
    12:00 0°C° 0 mm 3 m/s 600 mmHg 83%
    13:00 +1°C° 0 mm 3 m/s 600 mmHg 81%
    14:00 +1°C° 0 mm 3 m/s 600 mmHg 83%
    15:00 +1°C° 0 mm 2 m/s 600 mmHg 85%
    16:00 +1°C° 0 mm 2 m/s 600 mmHg 87%
    17:00 -1°C° 0 mm 2 m/s 600 mmHg 88%
    18:00 -2°C° 0 mm 2 m/s 600 mmHg 90%
    19:00 -3°C° 0 mm 2 m/s 600 mmHg 92%
    20:00 -3°C° 0 mm 2 m/s 600 mmHg 92%
    21:00 -3°C° 0 mm 2 m/s 601 mmHg 92%
    22:00 -3°C° 0 mm 2 m/s 601 mmHg 92%
    23:00 -3°C° 0 mm 2 m/s 601 mmHg 92%

    Poimâine, 25 Octombrie, Miercuri

    Timp Temperatura Precipitaţii Vânt Presiune Umiditate
    00:00 -3°C° 0 mm 2 m/s 601 mmHg 91%
    01:00 -2°C° 0 mm 2 m/s 601 mmHg 90%
    02:00 -2°C° 0 mm 2 m/s 601 mmHg 89%
    03:00 -2°C° 0 mm 2 m/s 600 mmHg 88%
    04:00 -2°C° 0 mm 2 m/s 600 mmHg 87%
    05:00 -2°C° 0 mm 2 m/s 601 mmHg 87%
    06:00 -2°C° 0 mm 2 m/s 601 mmHg 87%
    07:00 -2°C° 0 mm 2 m/s 601 mmHg 87%
    08:00 +1°C° 0 mm 2 m/s 602 mmHg 85%
    09:00 +4°C° 0 mm 1 m/s 603 mmHg 84%
    10:00 +6°C° 0 mm 1 m/s 603 mmHg 83%
    11:00 +7°C° 0 mm 1 m/s 604 mmHg 81%
    12:00 +8°C° 0 mm 1 m/s 604 mmHg 79%
    13:00 +9°C° 0 mm 1 m/s 604 mmHg 77%
    14:00 +8°C° 0 mm 1 m/s 604 mmHg 81%
    15:00 +7°C° 0 mm 1 m/s 603 mmHg 84%
    16:00 +6°C° 0 mm 1 m/s 603 mmHg 87%
    17:00 +5°C° 0 mm 1 m/s 603 mmHg 87%
    18:00 +4°C° 0 mm 1 m/s 602 mmHg 86%
    19:00 +2°C° 0 mm 1 m/s 602 mmHg 86%
    20:00 +2°C° 0 mm 1 m/s 602 mmHg 83%
    21:00 +2°C° 0 mm 1 m/s 602 mmHg 80%
    22:00 +2°C° 0 mm 1 m/s 603 mmHg 78%
    23:00 +2°C° 0 mm 1 m/s 602 mmHg 77%

    26 Octombrie, Joi

    Timp Temperatura Precipitaţii Vânt Presiune Umiditate
    00:00 +1°C° 0 mm 1 m/s 602 mmHg 76%
    01:00 +1°C° 0 mm 1 m/s 602 mmHg 75%
    02:00 +1°C° 0 mm 1 m/s 602 mmHg 74%
    03:00 +1°C° 0 mm 1 m/s 602 mmHg 73%
    04:00 +1°C° 0 mm 1 m/s 602 mmHg 73%
    05:00 +1°C° 0 mm 1 m/s 602 mmHg 72%
    06:00 +1°C° 0 mm 1 m/s 602 mmHg 71%
    07:00 +1°C° 0 mm 1 m/s 602 mmHg 71%
    08:00 +4°C° 0 mm 1 m/s 603 mmHg 69%
    09:00 +6°C° 0 mm 1 m/s 604 mmHg 68%
    10:00 +8°C° 0 mm 0 m/s 605 mmHg 67%
    11:00 +9°C° 0 mm 0 m/s 605 mmHg 64%
    12:00 +9°C° 0 mm 0 m/s 606 mmHg 62%
    13:00 +11°C° 0 mm 1 m/s 606 mmHg 60%
    14:00 +10°C° 0 mm 1 m/s 605 mmHg 66%
    15:00 +9°C° 0 mm 1 m/s 604 mmHg 72%
    16:00 +8°C° 0 mm 1 m/s 604 mmHg 78%
    17:00 +6°C° 0 mm 1 m/s 603 mmHg 79%
    18:00 +5°C° 0 mm 1 m/s 603 mmHg 81%
    19:00 +3°C° 0 mm 1 m/s 602 mmHg 82%
    20:00 +3°C° 0 mm 1 m/s 602 mmHg 80%
    21:00 +2°C° 0 mm 2 m/s 602 mmHg 77%
    22:00 +2°C° 0 mm 2 m/s 602 mmHg 75%
    23:00 +2°C° 0 mm 2 m/s 602 mmHg 73%

    27 Octombrie, Vineri

    Timp Temperatura Precipitaţii Vânt Presiune Umiditate
    00:00 +1°C° 0 mm 2 m/s 601 mmHg 72%
    01:00 +1°C° 0 mm 2 m/s 601 mmHg 71%
    02:00 +1°C° 0 mm 2 m/s 601 mmHg 71%
    03:00 +1°C° 0 mm 2 m/s 600 mmHg 71%
    04:00 +1°C° 0 mm 2 m/s 600 mmHg 72%
    05:00 +1°C° 0 mm 2 m/s 600 mmHg 73%
    06:00 +1°C° 0 mm 2 m/s 600 mmHg 74%
    07:00 +1°C° 0 mm 2 m/s 600 mmHg 75%
    08:00 +3°C° 0 mm 2 m/s 600 mmHg 73%
    09:00 +5°C° 0 mm 2 m/s 601 mmHg 71%
    10:00 +7°C° 0 mm 2 m/s 601 mmHg 70%
    11:00 +7°C° 0 mm 2 m/s 601 mmHg 69%
    12:00 +8°C° 0 mm 2 m/s 601 mmHg 68%
    13:00 +8°C° 0 mm 2 m/s 601 mmHg 67%
    14:00 +7°C° 0,4 mm 2 m/s 600 mmHg 74%
    15:00 +6°C° 0,4 mm 2 m/s 599 mmHg 81%
    16:00 +4°C° 0,4 mm 2 m/s 598 mmHg 88%
    17:00 +4°C° 1,4 mm 2 m/s 598 mmHg 90%
    18:00 +3°C° 1,4 mm 2 m/s 598 mmHg 93%
    19:00 +2°C° 1,4 mm 2 m/s 598 mmHg 95%
    20:00 +2°C° 2,4 mm 2 m/s 598 mmHg 95%
    21:00 0°C° 2,4 mm 3 m/s 598 mmHg 95%
    22:00 0°C° 2,4 mm 3 m/s 598 mmHg 95%
    23:00 -1°C° 0,4 mm 3 m/s 598 mmHg 95%

    28 Octombrie, Sâmbătă

    Timp Temperatura Precipitaţii Vânt Presiune Umiditate
    00:00 -2°C° 0,4 mm 3 m/s 598 mmHg 95%
    01:00 -2°C° 0,4 mm 3 m/s 597 mmHg 95%
    02:00 -4°C° 0,2 mm 3 m/s 597 mmHg 95%
    03:00 -4°C° 0,2 mm 3 m/s 597 mmHg 95%
    04:00 -5°C° 0,2 mm 3 m/s 597 mmHg 94%
    05:00 -5°C° 0,2 mm 3 m/s 597 mmHg 95%
    06:00 -5°C° 0,2 mm 2 m/s 597 mmHg 95%
    07:00 -5°C° 0,2 mm 2 m/s 597 mmHg 95%
    08:00 -5°C° 0,2 mm 3 m/s 597 mmHg 91%
    09:00 -4°C° 0,2 mm 3 m/s 598 mmHg 87%
    10:00 -4°C° 0,2 mm 3 m/s 598 mmHg 82%
    11:00 -2°C° 0,2 mm 3 m/s 598 mmHg 79%
    12:00 -2°C° 0,2 mm 3 m/s 598 mmHg 75%
    13:00 -1°C° 0,2 mm 3 m/s 598 mmHg 71%
    14:00 -2°C° 0,3 mm 3 m/s 598 mmHg 75%
    15:00 -2°C° 0,3 mm 3 m/s 597 mmHg 78%
    16:00 -4°C° 0,3 mm 3 m/s 597 mmHg 81%
    17:00 -4°C° 0,5 mm 3 m/s 597 mmHg 84%
    18:00 -5°C° 0,5 mm 3 m/s 597 mmHg 86%
    19:00 -5°C° 0,5 mm 3 m/s 597 mmHg 89%
    20:00 -6°C° 0,4 mm 3 m/s 597 mmHg 90%
    21:00 -6°C° 0,4 mm 3 m/s 597 mmHg 90%
    22:00 -6°C° 0,4 mm 3 m/s 597 mmHg 91%
    23:00 -6°C° 0,2 mm 3 m/s 597 mmHg 91%

    29 Octombrie, Duminică

    Timp Temperatura Precipitaţii Vânt Presiune Umiditate
    00:00 -6°C° 0,2 mm 3 m/s 597 mmHg 91%
    01:00 -7°C° 0,2 mm 3 m/s 597 mmHg 91%
    02:00 -7°C° 0,1 mm 3 m/s 597 mmHg 91%
    03:00 -7°C° 0,1 mm 3 m/s 597 mmHg 91%
    04:00 -7°C° 0,1 mm 3 m/s 597 mmHg 90%
    05:00 -7°C° 0,1 mm 3 m/s 597 mmHg 90%
    06:00 -7°C° 0,1 mm 3 m/s 597 mmHg 90%
    07:00 -7°C° 0,1 mm 3 m/s 597 mmHg 90%
    08:00 -5°C° 0,1 mm 3 m/s 597 mmHg 86%
    09:00 -3°C° 0,1 mm 2 m/s 598 mmHg 82%
    10:00 -1°C° 0,1 mm 2 m/s 598 mmHg 77%
    11:00 -1°C° 0 mm 2 m/s 598 mmHg 76%
    12:00 +1°C° 0 mm 2 m/s 598 mmHg 75%
    13:00 +2°C° 0 mm 2 m/s 598 mmHg 74%
    14:00 +1°C° 0,1 mm 2 m/s 597 mmHg 77%
    15:00 +1°C° 0,1 mm 2 m/s 597 mmHg 81%
    16:00 -1°C° 0,1 mm 2 m/s 596 mmHg 84%
    17:00 -2°C° 0,3 mm 2 m/s 596 mmHg 87%
    18:00 -2°C° 0,3 mm 2 m/s 596 mmHg 89%
    19:00 -3°C° 0,3 mm 2 m/s 596 mmHg 91%
    20:00 -3°C° 0 mm 2 m/s 595 mmHg 93%
    21:00 -4°C° 0 mm 2 m/s 595 mmHg 94%
    22:00 -4°C° 0 mm 2 m/s 595 mmHg 95%
    23:00 -4°C° 0 mm 2 m/s 594 mmHg 94%
    Arată mai mult